Wind_Speed
9 11 10 9 9 9 11 12 14 11 11 12 8 9 12 12 13 13 15 15 13 13 13 18 14 14 10 5 9 8 7 4 2 1 1 6 15 15 11 11 6 9 12
7 9 10 10 10 7 8 10 13 12 12 10 10 13 12 14 12 15 13 15 11 10 14 16 14 13 11 8 10 11 13 6 2 6 7 7 14 15 7 3 7 6 9
10 11 10 7 11 12 10 10 10 12 11 8 8 11 11 9 11 13 17 13 9 5 6 9 12 15 11 9 9 10 3 2 4 11 17 11 11 6 11 7 7 9 10
13 14 12 11 11 13 12 10 8 10 11 10 7 10 10 9 9 14 13 11 6 3 2 4 5 14 9 10 3 4 3 3 8 9 9 2 10 7 10 9 12 10 12
15 15 16 13 11 11 13 12 10 8 8 9 7 8 9 8 8 9 11 8 6 6 6 5 1 5 8 4 2 0 2 5 8 5 7 12 7 2 6 5 7 10 8
12 18 16 18 15 13 12 14 12 10 7 9 6 6 7 8 8 8 8 8 6 5 4 3 4 4 4 5 4 4 4 4 2 5 10 5 4 3 5 3 6 9 10
25 17 20 20 19 16 14 15 13 12 9 10 7 6 6 5 6 7 7 8 9 7 3 3 2 2 3 2 2 2 2 3 5 7 6 5 2 3 4 4 4 6 6
26 24 18 24 19 17 15 15 16 15 12 11 10 9 6 6 5 6 7 8 8 7 7 6 7 6 5 3 4 2 2 3 4 2 1 1 1 2 3 5 4 6 7
28 26 24 25 24 20 18 17 16 15 15 14 13 11 10 9 8 7 5 5 3 4 7 5 3 4 4 2 2 3 5 3 2 2 2 3 6 8 9 12 11 10 7
32 29 27 26 27 22 22 21 18 17 17 17 16 16 14 12 12 10 9 8 6 5 6 4 5 4 3 2 2 3 4 4 4 5 5 6 6 9 9 9 10 10 6
37 35 31 25 27 24 24 23 21 19 18 18 18 18 16 14 14 11 11 10 8 7 8 5 6 5 5 5 4 4 4 4 5 8 8 9 7 7 10 11 9 10 11
38 35 33 31 26 28 26 25 22 21 22 21 20 20 18 16 15 13 14 11 10 11 9 10 8 7 6 4 6 8 6 6 7 9 10 11 12 10 10 11 12 12 12
23 45 39 32 28 28 24 24 23 22 22 21 20 20 21 19 19 17 17 16 14 12 11 10 8 8 9 9 12 11 10 10 10 11 11 13 14 15 13 14 16 17 16
24 34 38 35 30 31 26 27 29 24 21 20 19 20 20 21 20 19 17 17 16 15 13 12 12 13 13 15 15 15 14 14 14 15 16 17 17 17 18 20 20 20 21
25 24 29 30 32 35 35 33 32 26 27 26 25 25 24 23 23 23 22 20 19 18 17 17 16 16 15 16 16 18 18 20 20 19 20 20 21 22 23 24 24 23 23
21 28 30 35 36 36 32 41 34 32 34 34 32 31 30 27 27 26 24 22 20 19 19 19 19 19 19 20 20 21 23 24 22 22 22 21 23 25 26 27 29 28 28
11 13 22 31 41 44 43 38 43 38 39 42 40 34 33 32 31 28 24 23 22 21 20 21 23 22 24 25 24 23 25 27 25 23 26 29 26 23 26 30 31 31 31
14 16 18 27 35 31 33 39 48 46 45 39 51 40 35 31 33 32 28 28 28 25 25 25 26 25 26 27 28 27 27 28 29 28 30 30 33 32 35 34 31 31 32
13 11 17 20 24 30 37 40 37 56 47 34 34 39 39 37 35 36 32 30 27 28 29 30 30 29 31 32 32 32 33 32 32 32 31 31 31 32 35 38 38 38 39
20 20 27 24 22 25 28 37 42 29 27 27 27 32 48 36 36 34 35 34 33 34 33 33 34 33 33 36 36 37 38 37 36 35 34 34 33 32 36 37 40 41 38
27 26 25 30 30 30 26 24 26 43 32 22 32 36 33 37 33 35 35 36 36 33 32 33 31 28 29 32 37 38 39 38 40 37 34 36 36 35 37 36 34 34 35
28 27 22 22 30 27 30 24 21 19 24 26 25 31 34 42 28 29 38 36 38 39 31 29 30 32 29 27 27 30 32 33 31 31 30 30 30 31 30 29 31 32 31
23 18 22 25 31 31 26 24 25 20 19 18 29 16 23 25 20 22 28 31 32 32 29 25 27 23 21 20 19 21 24 27 31 32 32 31 30 29 30 33 35 34 35
21 22 24 28 30 28 28 24 22 25 23 22 16 9 5 7 10 7 8 11 16 17 18 20 20 21 21 20 22 23 25 26 28 29 32 33 34 35 36 38 39 40 40
23 26 26 26 27 27 26 27 27 26 25 26 21 21 10 11 11 14 16 16 17 20 22 22 24 24 26 27 28 30 31 32 34 36 38 38 38 39 39 40 42 43 42
26 29 28 34 31 30 32 31 31 30 31 29 29 17 20 19 18 19 21 22 24 26 27 28 28 30 31 32 33 34 35 36 36 36 37 39 41 42 43 44 44 43 44
Wind_Direction
169 140 140 131 125 135 137 118 109 108 112 112 102 118 154 152 174 143 153 152 163 171 185 169 184 198 187 184 288 277 268 266 268 239 159 359 331 288 308 315 42 32 77
155 153 166 170 155 166 137 121 120 123 105 105 109 103 139 153 153 137 150 146 158 203 212 201 179 193 190 269 250 256 230 232 268 308 311 326 335 324 298 297 339 60 65
198 184 171 178 159 168 167 138 131 115 112 102 111 107 117 147 156 140 149 141 146 181 119 174 201 215 205 210 222 248 169 216 329 352 324 308 304 347 356 117 107 39 50
215 190 171 185 175 164 166 154 143 128 125 119 119 130 129 130 137 144 152 151 167 193 49 67 167 185 182 199 151 133 214 302 305 328 40 97 313 303 25 47 39 70 42
203 207 182 190 186 178 171 173 164 151 132 121 135 139 148 154 156 152 164 182 185 202 196 203 197 130 134 144 184 255 311 274 275 344 62 38 59 97 59 55 30 51 65
227 196 207 190 187 188 182 177 176 175 164 142 152 152 169 166 164 165 175 182 185 206 198 196 193 160 155 167 170 209 225 227 267 43 64 71 77 92 89 99 62 55 49
222 211 207 212 186 191 195 184 182 191 181 164 176 178 181 209 195 174 167 173 171 172 183 235 273 236 220 211 200 219 202 127 85 41 42 59 71 75 101 129 77 67 53
206 211 206 208 192 197 201 199 188 187 197 189 194 182 194 165 195 195 190 196 177 173 179 194 203 211 217 206 191 229 285 52 85 148 119 249 307 306 325 352 6 23 41
212 211 209 203 199 205 202 207 200 198 195 202 210 207 207 199 197 208 209 229 216 202 197 181 228 255 253 254 303 323 322 339 318 285 298 300 305 317 335 326 340 358 16
217 219 224 206 197 199 210 208 202 203 204 204 210 216 217 214 213 209 205 216 214 218 237 246 197 216 217 217 231 268 289 309 297 297 286 292 318 320 319 319 334 333 353
220 214 225 210 210 213 218 217 206 207 211 212 208 215 214 218 220 215 224 213 222 231 245 246 196 213 214 209 219 265 263 272 292 296 305 311 320 322 321 321 325 324 326
224 218 216 224 225 216 223 222 214 209 214 219 217 216 213 215 224 216 222 224 222 209 216 228 223 230 241 271 282 280 293 305 303 296 291 293 302 307 301 304 304 301 301
197 203 209 220 220 204 214 229 227 221 220 220 223 229 227 214 217 212 211 214 219 225 232 246 257 260 261 259 267 278 285 283 283 289 294 290 290 291 291 289 288 290 294
203 208 203 211 218 224 222 225 236 235 233 231 224 222 232 224 219 222 221 222 224 233 241 247 250 260 266 270 277 283 286 289 292 294 293 291 290 286 286 287 287 287 286
204 201 210 216 218 221 231 237 218 232 241 240 237 232 226 234 228 224 228 232 233 234 238 248 257 256 258 264 269 276 284 289 289 287 288 288 287 287 287 288 285 286 284
217 203 201 208 214 228 225 233 223 238 228 237 236 239 240 231 242 238 238 242 242 250 254 255 259 263 264 265 269 272 280 284 284 286 288 290 282 283 285 283 285 281 278
230 253 229 226 226 235 228 224 231 235 224 238 236 233 236 240 235 241 244 252 255 259 260 260 260 257 264 268 271 278 278 280 278 285 294 288 292 281 287 292 286 280 279
248 234 243 248 244 240 231 234 228 235 220 233 226 232 224 226 236 241 247 247 250 251 258 261 262 264 266 268 270 268 271 276 274 287 278 296 286 279 281 290 295 286 280
270 259 248 250 255 251 243 235 237 231 241 227 220 223 234 237 219 247 250 252 254 257 259 260 261 265 268 266 268 268 269 272 277 281 283 284 285 284 283 286 288 288 281
259 269 275 282 267 249 255 245 236 244 254 257 235 237 231 239 235 241 244 249 255 259 261 262 265 267 264 264 268 268 267 272 277 279 278 278 278 278 280 279 285 286 287
269 266 258 271 278 249 255 257 235 237 236 235 247 222 226 223 247 245 248 244 249 248 258 255 268 273 277 276 266 264 270 272 274 272 275 278 275 277 279 280 283 284 288
250 253 237 253 264 256 253 266 261 235 224 233 245 231 240 237 247 250 242 245 248 252 250 249 263 269 275 271 271 271 269 271 271 272 272 272 278 278 279 281 283 288 287
261 238 244 246 248 251 242 246 264 254 241 192 196 201 186 206 209 225 238 243 248 255 254 250 257 258 256 256 261 264 268 266 267 268 273 279 280 283 286 286 286 286 286
255 236 243 249 242 246 247 243 246 260 267 251 242 245 179 176 187 194 212 229 237 230 237 241 242 251 249 254 259 261 264 267 270 275 279 281 282 282 286 285 288 290 291
248 242 241 236 235 237 245 249 243 243 254 268 274 257 254 236 226 234 242 242 239 243 246 250 252 257 258 262 266 269 273 275 277 280 282 286 290 290 289 290 290 291 291
235 235 236 234 231 234 236 236 235 242 248 250 260 261 252 247 251 248 254 252 258 259 253 253 261 266 267 267 270 274 278 280 280 281 283 285 288 290 290 289 288 288 289
Height
5899 5901 5901 5903 5904 5905 5908 5907 5907 5910 5911 5911 5912 5911 5912 5915 5915 5920 5924 5924 5926 5929 5928 5931 5930 5932 5935 5939 5943 5944 5942 5941 5940 5938 5933 5935 5934 5932 5929 5927 5927 5926 5926
5897 5902 5902 5904 5906 5907 5907 5908 5909 5910 5912 5912 5914 5913 5914 5914 5918 5923 5926 5927 5927 5931 5931 5929 5931 5932 5937 5939 5943 5944 5941 5939 5939 5937 5932 5933 5935 5929 5928 5927 5927 5925 5925
5900 5900 5900 5902 5906 5906 5909 5910 5910 5910 5913 5912 5914 5915 5916 5917 5921 5925 5929 5930 5931 5932 5934 5932 5931 5934 5938 5939 5942 5943 5941 5939 5939 5936 5935 5933 5934 5932 5928 5928 5926 5925 5924
5902 5902 5899 5900 5905 5905 5907 5911 5911 5912 5913 5915 5917 5918 5918 5920 5923 5927 5930 5933 5933 5931 5932 5934 5934 5936 5937 5938 5940 5941 5939 5936 5935 5937 5932 5932 5933 5933 5931 5928 5929 5924 5923
5902 5905 5899 5901 5904 5905 5906 5911 5913 5913 5915 5916 5917 5918 5921 5921 5924 5927 5931 5932 5935 5935 5936 5935 5935 5938 5937 5937 5938 5936 5936 5936 5935 5936 5931 5933 5933 5934 5933 5933 5931 5929 5929
5900 5902 5904 5902 5904 5906 5907 5909 5912 5914 5916 5917 5918 5920 5922 5923 5926 5928 5930 5934 5935 5935 5935 5936 5936 5935 5936 5939 5940 5939 5938 5939 5936 5934 5932 5936 5937 5936 5936 5937 5933 5933 5932
5894 5898 5903 5904 5902 5905 5907 5909 5910 5913 5916 5918 5919 5920 5921 5924 5926 5929 5931 5933 5935 5936 5934 5934 5934 5934 5935 5937 5940 5941 5940 5939 5935 5931 5933 5935 5936 5937 5935 5935 5934 5933 5932
5888 5894 5897 5901 5900 5903 5904 5907 5909 5912 5915 5917 5918 5921 5921 5924 5925 5928 5931 5932 5934 5935 5937 5937 5938 5937 5937 5940 5940 5940 5939 5936 5935 5936 5937 5937 5937 5936 5935 5933 5933 5932 5932
5883 5888 5894 5896 5898 5900 5901 5904 5906 5908 5912 5915 5917 5919 5922 5923 5925 5928 5930 5929 5931 5934 5936 5937 5937 5937 5937 5938 5937 5937 5936 5936 5935 5936 5935 5935 5935 5934 5933 5932 5932 5931 5932
5881 5886 5889 5892 5894 5896 5897 5902 5903 5906 5909 5913 5916 5918 5921 5923 5925 5927 5929 5929 5931 5934 5935 5935 5935 5936 5937 5937 5938 5938 5936 5935 5935 5933 5933 5933 5933 5932 5932 5933 5932 5931 5931
5873 5880 5885 5886 5891 5894 5895 5898 5901 5903 5905 5908 5912 5915 5917 5920 5923 5925 5926 5927 5928 5930 5932 5933 5934 5934 5934 5935 5935 5935 5935 5935 5934 5932 5932 5930 5931 5930 5930 5930 5930 5929 5929
5863 5871 5877 5883 5887 5890 5892 5895 5896 5899 5902 5904 5908 5913 5915 5917 5918 5922 5923 5925 5926 5928 5929 5930 5931 5932 5932 5931 5932 5933 5931 5931 5931 5931 5929 5929 5928 5928 5929 5928 5928 5928 5927
5856 5863 5869 5874 5880 5886 5890 5892 5892 5895 5900 5903 5906 5910 5913 5915 5917 5919 5920 5921 5922 5923 5924 5925 5925 5925 5927 5928 5930 5931 5930 5929 5928 5927 5926 5926 5925 5925 5925 5925 5925 5924 5924
5850 5854 5860 5868 5875 5879 5884 5887 5890 5892 5897 5900 5904 5905 5909 5910 5912 5914 5916 5917 5918 5918 5919 5920 5922 5924 5925 5926 5926 5926 5925 5925 5924 5924 5923 5922 5922 5921 5921 5921 5921 5922 5920
5845 5848 5853 5860 5868 5871 5878 5881 5885 5888 5892 5895 5897 5899 5902 5906 5908 5910 5913 5914 5914 5915 5916 5918 5918 5920 5921 5922 5921 5921 5921 5920 5920 5920 5919 5918 5918 5916 5916 5916 5915 5916 5914
5844 5846 5849 5855 5857 5864 5866 5871 5874 5880 5883 5886 5888 5892 5896 5900 5903 5904 5906 5909 5910 5910 5912 5913 5914 5915 5915 5916 5916 5916 5915 5915 5916 5915 5914 5914 5914 5912 5911 5910 5910 5910 5908
5840 5841 5845 5846 5852 5854 5859 5864 5868 5871 5875 5874 5879 5882 5887 5893 5896 5900 5902 5903 5904 5905 5906 5908 5909 5910 5910 5910 5911 5910 5910 5910 5910 5909 5908 5907 5907 5906 5905 5903 5902 5901 5900
5840 5842 5844 5844 5848 5848 5852 5855 5859 5860 5860 5857 5864 5877 5880 5882 5888 5893 5896 5897 5899 5900 5901 5902 5903 5904 5904 5904 5904 5904 5904 5903 5903 5903 5903 5902 5900 5899 5898 5897 5895 5893 5892
5836 5839 5843 5845 5844 5843 5844 5847 5849 5852 5852 5849 5856 5869 5871 5875 5877 5883 5886 5888 5890 5893 5893 5894 5895 5896 5896 5896 5894 5895 5896 5896 5896 5895 5895 5894 5892 5891 5889 5888 5887 5886 5885
5830 5833 5835 5838 5843 5842 5837 5837 5840 5842 5846 5853 5846 5858 5861 5864 5869 5874 5876 5877 5881 5885 5885 5886 5886 5885 5886 5887 5886 5887 5888 5888 5886 5886 5885 5884 5883 5882 5881 5878 5875 5874 5872
5823 5825 5830 5832 5833 5836 5836 5833 5833 5838 5842 5846 5841 5846 5853 5854 5851 5861 5866 5869 5872 5874 5874 5876 5877 5877 5877 5876 5877 5877 5878 5878 5877 5875 5875 5872 5872 5871 5870 5868 5865 5863 5861
5815 5817 5820 5825 5824 5828 5831 5834 5833 5834 5838 5839 5841 5834 5842 5847 5850 5852 5855 5858 5862 5864 5862 5865 5868 5868 5868 5867 5867 5867 5867 5867 5867 5867 5866 5864 5863 5862 5860 5858 5855 5853 5851
5806 5810 5814 5817 5821 5824 5824 5826 5829 5829 5831 5833 5833 5834 5832 5836 5838 5842 5846 5847 5850 5851 5853 5856 5860 5860 5860 5860 5859 5859 5859 5859 5859 5858 5857 5855 5853 5852 5850 5847 5845 5843 5840
5798 5802 5805 5809 5811 5816 5819 5819 5822 5824 5824 5827 5826 5826 5825 5831 5837 5839 5842 5845 5846 5848 5850 5852 5853 5853 5853 5853 5853 5853 5852 5852 5851 5850 5849 5846 5843 5841 5840 5838 5836 5833 5830
5790 5793 5799 5801 5804 5809 5812 5815 5816 5818 5820 5821 5823 5825 5828 5831 5833 5836 5838 5840 5842 5844 5844 5845 5845 5845 5845 5846 5846 5846 5845 5844 5842 5841 5839 5837 5836 5834 5831 5829 5826 5822 5820
5781 5785 5789 5794 5797 5799 5803 5807 5810 5813 5815 5817 5818 5819 5822 5827 5829 5832 5834 5835 5835 5836 5836 5837 5838 5838 5838 5837 5837 5837 5836 5836 5833 5831 5830 5828 5826 5823 5821 5819 5815 5812 5809